Theta_e
294 294 295 295 295 295 295 294 293 293 293 292 292 292 291 290 290 290 289 289 289 289 289 289 289 290 290 290 291 291 291 291 288 290 292 292 291 291 292 294 294 294 295
291 291 291 292 292 292 291 291 291 290 290 289 289 289 289 288 288 287 287 287 287 286 287 287 287 289 286 288 289 289 288 289 288 285 287 288 289 290 291 291 292 293 292
290 290 289 289 290 289 289 289 289 288 287 287 287 286 286 286 286 286 286 286 285 285 285 285 285 285 283 285 287 287 287 287 286 284 284 287 288 289 288 289 289 289 291
289 288 288 288 288 288 287 287 286 286 285 285 284 284 284 284 285 285 285 284 283 283 284 284 283 283 283 284 285 285 286 285 285 284 284 284 285 286 287 286 285 286 286
288 287 286 286 287 285 285 284 284 284 284 284 283 283 284 285 285 284 284 284 283 283 282 282 283 284 286 286 285 284 284 284 284 283 283 283 283 284 283 284 283 284 285
286 286 285 285 284 284 283 283 283 283 283 283 283 283 282 284 289 289 285 283 283 282 281 281 282 282 283 286 287 287 286 284 283 283 283 282 283 283 284 283 282 282 280
285 284 284 284 284 283 283 283 283 283 283 282 282 282 282 283 288 289 287 283 282 281 281 281 282 283 284 284 285 287 286 287 288 285 283 282 282 283 284 283 283 282 281
284 283 283 283 283 283 283 282 282 282 282 281 281 281 281 283 288 288 286 282 282 282 282 283 283 283 284 284 284 284 284 285 285 285 284 284 285 285 285 284 283 282 282
283 283 282 282 282 281 281 281 281 279 278 278 279 277 277 277 287 287 285 283 283 283 283 284 283 282 285 287 284 283 284 284 286 287 288 288 287 287 285 282 278 278 277
283 283 282 281 280 279 280 279 278 277 278 278 278 275 274 272 283 286 285 281 278 281 283 283 284 282 286 286 284 283 281 282 283 284 283 284 285 284 284 282 280 277 277
282 281 280 279 279 279 278 277 275 275 276 271 273 272 271 272 274 284 285 283 281 280 281 281 282 285 286 287 287 283 283 285 284 282 282 282 282 282 282 282 282 279 273
281 279 278 278 278 277 276 273 272 273 273 269 269 271 272 273 278 282 284 284 284 274 276 280 281 285 285 286 286 286 286 285 282 281 280 280 280 281 282 282 281 278 277
280 277 275 275 276 274 274 274 273 272 270 269 271 269 271 274 272 282 283 284 284 279 280 282 286 286 285 283 284 285 284 282 280 278 278 278 280 281 281 277 278 274 274
277 275 274 274 273 273 273 272 271 268 267 269 268 266 266 269 271 273 275 274 279 280 282 280 283 285 285 283 278 281 282 280 278 277 277 277 277 275 273 276 277 271 270
276 274 274 274 273 271 271 269 270 269 269 269 263 264 263 265 270 278 277 272 272 278 280 272 279 280 274 273 273 277 278 279 277 277 274 274 275 275 272 274 274 269 271
275 274 274 272 270 269 269 267 273 276 278 278 279 272 267 277 280 280 281 282 281 281 271 270 271 270 271 273 274 275 277 275 277 276 274 274 274 273 274 273 273 269 269
276 273 271 270 268 267 265 265 265 265 273 276 277 276 277 277 277 278 280 278 276 273 260 260 263 267 270 270 271 271 272 273 271 273 273 273 273 272 273 273 272 270 269
270 271 270 268 266 264 263 261 259 260 260 259 268 271 274 274 276 277 276 269 258 261 256 257 259 261 265 266 267 267 268 269 270 269 270 270 270 269 270 271 271 268 268
265 265 264 262 261 262 261 259 257 254 255 254 254 263 263 272 274 272 271 255 254 253 254 255 255 257 260 261 263 264 264 266 267 265 266 268 268 267 267 268 268 267 266
260 262 261 261 259 258 258 259 258 257 256 254 252 253 253 257 255 253 252 251 250 251 252 252 254 253 255 256 258 259 261 261 262 261 264 266 267 266 266 266 267 266 265
262 261 262 260 261 261 260 260 260 257 256 254 255 254 267 258 255 252 251 250 251 251 252 251 252 251 252 253 252 252 255 258 259 261 260 263 264 263 265 265 264 264 263
262 262 261 261 262 259 259 259 257 256 256 255 253 252 269 253 250 250 250 251 252 251 252 252 254 253 253 253 253 251 253 255 254 257 260 261 262 263 263 263 263 263 263
262 262 260 260 259 259 259 256 256 256 255 254 253 253 250 250 250 250 251 254 252 251 251 248 252 254 253 253 253 255 255 255 255 256 259 259 260 260 261 261 262 262 262
261 261 262 261 260 260 259 258 257 256 255 254 251 251 252 251 253 256 257 254 250 251 251 250 251 253 255 254 253 254 255 256 255 259 259 258 258 259 260 260 260 260 260
261 261 261 262 260 259 258 256 255 254 253 254 254 254 256 257 256 256 254 252 251 251 252 252 252 253 255 256 255 254 255 261 259 260 260 259 258 258 258 258 258 258 258
259 260 260 259 257 258 257 256 257 256 255 257 257 258 258 258 257 256 253 251 252 252 252 252 253 254 255 255 256 258 258 263 261 261 261 259 258 257 258 257 257 256 256
Wind_Speed
5 6 8 8 8 8 8 8 8 8 7 7 7 7 7 7 6 7 6 6 7 6 6 6 6 5 4 4 3 4 5 6 10 10 8 10 12 11 11 9 9 10 9
5 7 8 8 8 8 8 9 9 10 7 8 7 7 7 6 6 7 6 6 6 6 5 5 5 4 5 5 5 7 7 7 8 17 14 13 13 13 13 13 10 8 11
6 8 8 7 8 8 9 9 9 9 7 7 7 7 6 6 6 6 6 5 6 6 5 5 4 4 3 2 6 6 6 6 9 9 13 10 11 10 13 13 10 13 8
6 7 8 7 8 8 8 8 8 7 8 7 6 6 6 6 5 5 5 5 4 4 3 4 4 5 5 5 5 5 6 7 8 10 12 12 11 11 10 12 13 10 12
8 7 7 7 8 8 8 7 7 7 6 6 7 6 5 5 4 4 4 4 3 3 4 4 4 3 7 9 5 6 6 6 7 9 10 10 10 10 10 9 11 13 11
7 8 7 8 7 7 7 7 6 6 6 6 6 6 5 3 5 6 5 4 4 5 5 5 5 5 6 11 13 14 11 7 9 8 9 11 12 10 9 10 11 11 12
8 7 7 7 8 7 7 6 6 6 6 6 5 5 5 3 6 7 8 4 4 5 5 4 3 3 7 5 11 14 11 14 15 11 12 10 13 12 13 13 11 10 11
8 8 7 7 7 6 6 7 6 4 5 4 4 4 4 4 7 8 10 5 4 5 3 3 4 5 7 8 10 9 8 6 8 7 9 11 11 11 10 9 11 11 9
9 9 7 6 7 6 6 7 4 4 2 2 3 4 4 3 6 6 6 4 4 4 5 5 5 6 12 17 10 9 8 7 7 16 16 17 21 20 15 8 7 8 10
10 8 7 6 6 6 6 6 3 2 3 2 3 3 2 1 3 5 3 1 0 0 4 5 9 8 16 16 8 9 10 10 9 8 5 9 11 9 11 5 7 8 7
8 8 6 5 6 5 5 3 3 3 4 3 3 2 1 2 1 3 3 1 1 2 2 2 3 15 16 17 17 5 10 13 11 7 8 6 7 5 4 3 4 4 3
10 9 7 6 4 4 6 4 3 4 5 3 2 1 1 2 3 1 4 4 6 1 4 4 4 13 18 18 15 16 17 15 6 7 7 7 7 6 6 5 4 3 2
10 8 6 6 5 5 5 6 4 4 3 3 2 2 1 2 2 4 6 7 8 5 4 9 18 18 14 9 15 20 15 5 6 6 7 6 5 6 5 3 4 2 4
11 9 7 7 6 4 3 3 3 4 3 3 3 2 1 2 2 2 2 3 7 6 8 6 10 15 16 9 5 9 7 6 5 6 6 5 5 3 2 2 3 2 1
9 8 7 5 6 5 3 4 3 3 4 4 4 4 3 2 3 5 5 3 3 6 8 2 5 6 3 3 4 6 6 7 6 5 3 5 6 4 3 2 2 1 1
10 8 7 6 5 4 5 2 3 5 5 4 5 6 3 4 5 6 7 9 11 13 3 3 3 3 4 6 6 8 6 6 7 5 3 5 6 5 6 2 2 1 2
9 8 6 6 6 6 4 4 5 2 1 4 3 0 2 2 4 6 5 7 9 8 2 2 2 3 5 6 7 7 8 7 4 3 4 5 5 5 5 4 2 2 2
6 9 7 6 5 5 4 4 3 4 4 2 2 1 2 3 4 3 5 6 4 4 1 2 2 3 4 6 6 7 7 7 6 4 4 4 4 4 5 4 3 2 1
6 5 4 4 4 4 4 4 3 3 3 3 2 3 2 3 3 3 5 3 3 2 2 3 3 3 3 3 6 7 7 7 7 4 3 3 3 3 4 4 3 4 2
4 7 7 5 5 4 4 5 5 5 4 3 3 4 2 1 1 1 1 2 2 3 3 3 4 3 3 3 4 4 6 5 5 3 4 4 3 3 4 4 3 3 2
6 5 8 5 6 6 6 7 5 4 4 4 5 4 10 4 4 4 3 3 4 4 4 3 3 3 3 3 3 3 3 4 4 3 3 3 3 4 3 3 3 3 2
6 6 7 7 6 6 6 5 5 5 5 5 4 3 7 2 3 3 3 4 4 4 3 3 4 4 4 4 4 3 4 5 4 3 3 3 3 4 3 4 4 3 2
6 7 6 4 4 5 6 5 5 5 5 5 4 3 2 3 3 4 4 4 3 4 3 3 4 4 4 4 4 4 5 5 4 3 4 4 3 3 3 4 4 4 3
7 8 8 7 7 6 6 7 6 5 4 4 4 4 4 4 4 5 4 4 3 4 4 4 4 6 5 5 5 5 5 5 3 5 6 4 4 4 4 4 4 5 4
8 8 8 8 7 7 6 4 4 4 4 4 4 4 4 4 4 4 4 4 4 4 5 4 4 6 9 10 8 8 8 10 7 6 5 6 6 6 5 4 4 4 3
5 6 6 4 5 5 5 5 6 5 5 5 5 5 5 4 4 4 4 4 4 4 5 4 6 9 10 8 9 10 9 11 10 10 8 6 6 5 4 5 5 3 4
Wind_Direction
105 96 101 96 95 94 99 107 102 90 85 87 89 83 74 70 62 75 67 57 62 49 33 34 28 18 11 2 353 350 341 333 302 314 327 328 326 319 324 319 312 305 307
107 101 98 100 100 103 106 104 99 100 89 94 87 84 79 72 65 72 72 59 62 52 34 32 23 11 14 2 357 346 331 325 312 305 317 321 321 321 314 312 315 312 309
103 107 100 102 108 107 102 98 95 100 92 86 91 94 90 83 82 75 79 67 54 42 26 21 360 4 353 347 344 335 327 317 315 305 308 314 316 320 318 316 316 317 319
113 111 112 108 111 108 103 100 104 102 104 103 98 101 92 89 85 77 71 65 58 50 32 28 17 16 354 343 339 331 324 314 312 309 310 314 316 320 311 320 319 321 319
120 115 113 114 109 106 101 103 106 107 114 115 107 90 86 82 79 87 89 94 74 46 34 31 40 6 358 347 336 325 322 312 308 312 305 306 312 317 321 320 306 312 311
123 124 125 124 120 116 119 123 116 114 109 100 90 98 96 98 95 96 107 75 46 30 15 14 11 359 345 341 330 324 317 311 302 301 300 307 311 315 312 311 304 311 313
135 140 140 139 135 133 132 129 120 113 109 102 107 121 121 118 79 66 60 53 43 29 17 359 349 327 338 324 322 317 306 304 305 304 302 303 304 311 304 306 307 306 303
149 149 142 148 136 142 132 121 116 108 118 127 112 97 93 62 62 62 57 44 38 22 5 310 330 322 332 322 319 311 301 282 275 285 277 290 292 300 305 314 321 307 301
161 160 157 145 144 144 130 126 111 109 101 116 117 98 88 59 74 69 71 42 12 358 352 342 341 320 323 331 324 312 310 304 278 295 296 306 313 319 330 321 317 316 313
165 159 147 139 138 141 139 137 126 120 119 115 100 94 117 106 17 19 36 191 292 288 352 337 329 315 326 327 322 320 312 309 303 293 288 304 301 292 310 287 304 311 321
133 127 125 129 145 144 124 94 115 113 111 78 78 10 96 169 296 41 23 48 355 320 297 263 298 323 321 317 317 309 299 310 317 308 298 295 291 276 288 253 263 288 290
135 134 136 137 132 128 123 115 108 126 121 106 100 29 303 252 211 50 37 10 326 194 272 267 266 306 319 319 319 296 302 314 302 302 297 295 302 303 305 309 271 270 258
138 139 139 137 134 141 144 145 138 141 134 164 166 158 266 322 295 313 342 326 326 308 259 284 301 294 308 310 308 310 299 277 283 290 290 292 295 296 300 306 290 296 263
147 151 153 153 151 147 134 148 139 157 166 168 168 151 259 291 301 301 276 289 277 276 276 280 291 285 301 300 303 303 292 275 258 273 283 287 292 289 283 259 294 306 317
148 154 161 158 164 155 159 162 174 205 172 172 194 171 169 242 258 295 322 294 275 297 309 322 321 316 330 318 294 295 290 283 271 265 265 286 292 291 285 309 278 298 249
162 168 171 163 163 162 162 156 249 201 190 208 197 177 236 248 287 315 306 321 343 337 2 358 338 306 305 310 318 313 310 290 289 274 274 283 291 294 296 281 248 229 251
166 162 158 163 170 170 164 174 166 322 230 188 165 126 261 271 299 289 313 8 359 8 52 322 295 318 323 315 308 309 308 306 287 279 285 289 291 292 298 281 264 244 260
146 161 169 171 169 163 166 173 156 169 178 244 290 241 245 265 274 287 6 46 12 360 41 305 297 290 302 305 306 305 305 307 303 291 295 297 299 293 298 292 293 279 274
159 162 153 153 161 153 153 156 153 168 194 199 335 314 294 266 273 55 63 125 180 241 258 280 260 269 282 293 304 305 299 304 307 303 294 302 304 305 300 303 305 300 280
154 160 164 163 159 162 167 179 184 190 191 195 198 225 263 92 60 301 257 166 198 235 246 241 256 251 256 271 285 288 301 307 309 306 311 312 313 317 309 319 321 319 302
174 171 171 165 183 187 185 201 199 173 184 201 215 217 221 177 196 203 224 234 227 243 242 240 260 252 248 264 270 284 294 295 297 308 306 315 321 319 326 313 314 298 299
170 179 185 192 186 188 188 192 193 189 188 201 224 245 236 142 180 218 230 244 247 237 236 235 256 245 245 240 248 254 274 278 285 295 300 303 311 310 317 308 305 300 289
172 175 176 186 182 186 189 194 194 189 193 206 201 207 206 217 224 227 238 246 247 262 260 232 244 264 250 247 236 223 241 254 242 230 276 286 289 291 295 288 291 295 284
179 183 192 193 187 198 201 201 204 193 193 196 201 212 221 222 228 235 242 245 246 252 242 250 244 249 264 259 246 240 234 242 226 248 245 250 265 277 278 276 274 271 273
189 192 196 195 194 196 195 193 193 196 200 202 207 213 216 228 234 239 232 236 249 252 262 247 241 256 261 259 259 255 249 261 257 236 230 235 247 249 257 260 266 272 272
181 188 191 173 177 183 189 198 208 197 205 211 213 213 222 234 243 246 245 241 245 249 256 256 257 264 267 262 258 260 255 260 251 240 233 224 229 234 234 238 247 244 259